KUIPER-00541

导读

KUIPER-00541(NORAD编号69610)是亚马逊“柯伊伯计划”(Project Kuiper)低轨互联网星座的组网卫星,隶属于亚马逊全球卫星宽带基础设施项目,核心功能是提供全球范围内的高速互联网接入服务。 该卫星推测于2025年-2026年上半年随柯伊伯计划批次发射任务进入近地轨道,目前处于在轨运行状态,将与后续部署的数千颗同系列卫星组网,为地面偏远地区、移动终端等场景提供低时延、高带宽的网络通信支撑,助力亚马逊太空互联网商业化落地。

基本信息
目录编号:
69610
目录名称:
KUIPER-00541
国际标识:
2026-140U
轨道中心:
EARTH
卫星名称:
KUIPER-00541
卫星全名:
KUIPER-00541
卫星状态:
在轨 (已飞行86 天)
发射日期:
2026-06-17 UTC
国别 :
美国 (US)
星等 :
--
该卫星已列入 空间交会检测服务 Space Conjunction Data Service (SCDS) ,当前飞行风险评估等级: 无高风险
轨道信息
数据来源 国际轨道数据
星历时间: 2026-09-11T06:00:04+0800
13小时前
查看轨道信息
半长轴: 6844.517km
偏心率: 0.0007896
轨道倾角: 51.885°
近地点辐角 162.777°
升交点赤经 343.903°
平近点角 291.821°
近地点: 460.975km
远地点: 471.785km
周期: 93.923分钟
每日圈数: 15.331639
详细信息
使用方式:
暂无
2D轨道图
3D轨道图
轨道高度分析图
轨道倾角分析图
轨道综合分析图
查看轨道综合分析图
与全量物体交会距离演化趋势
与全量物体交会风险概率演化趋势